Regional Weather Roundup
Issued by NWS Wakefield, VA

Home | Current Version | Previous Version | Text Only | Print | Product List | Glossary Off
Versions: 1 2 3 4 5 6 7 8 9 10 11 12 13 14 15 16 17 18 19 20 21 22 23 24 25 26 27 28 29 30 31 32 33 34 35 36 37 38 39 40 41 42 43 44 45 46 47 48 49 50

000
ASUS41 KAKQ 220210
RWRAKQ

REGIONAL WEATHER ROUNDUP
NATIONAL WEATHER SERVICE WAKEFIELD VA
1000 PM EDT THU AUG 21 2014

Note: "fair" indicates few or no clouds below 12,000 feet with no
significant weather and/or obstructions to visibility. * = Denotes
station may not report precipitation (e.g., rain,snow,etc.),
thunder or fog.

VAZ042-051-052>054-056-220300-
NORTHERN VIRGINIA

CITY           SKY/WX    TMP DP  RH WIND       PRES   REMARKS
WASH NATIONAL  CLOUDY    78  71  79 SW5       29.99S
DULLES         CLOUDY    72  71  97 CALM      30.01R
FORT BELVOIR   CLOUDY    74  72  95 VRB1      30.00S
QUANTICO       CLOUDY    79  74  84 NE7       30.00R
FREDERICKSBRG* CLOUDY    78  76  96 CALM      29.99R
STAFFORD*      CLOUDY    76  76 100 CALM      30.04R FOG
WARRENTON      CLOUDY    74  74 100 CALM      30.01R FOG
CULPEPER*      CLOUDY   N/A N/A N/A CALM      30.01S HAZE
MANASSAS*      CLOUDY    75  75 100 CALM      30.00R
LEESBURG*      CLOUDY    72  72 100 W3        30.02R
WINCHESTER     MOCLDY    77  64  65 SW3       30.03R
$$

VAZ048-049-060>072-079>083-220300-
CENTRAL AND SOUTH CENTRAL VIRGINIA...AND NORTH CENTRAL NORTH CAROLINA

CITY           SKY/WX    TMP DP  RH WIND       PRES   REMARKS
RICHMOND       LGT RAIN  83  72  69 SW5       30.01R
CHESTERFIELD*  CLOUDY   N/A N/A N/A W5        30.03R
HANOVER        CLOUDY    77  74  90 CALM      30.03R
TAPPAHANNOCK*  CLOUDY    78  74  88 CALM      30.01S
CHARLOTTSVILLE CLOUDY    75  70  84 SW7       30.03R
ORANGE*        CLOUDY    75  72  88 S5        30.03R
LOUISA*        CLOUDY    77  72  83 W3        30.02R
FARMVILLE*     CLOUDY    73  72  94 SW5       30.03R
SOUTH HILL*    CLOUDY    79  77  94 W3        30.10R
ROANOKE RAPIDS CLOUDY    79  73  83 CALM      30.04R
RALEIGH        CLOUDY    78  71  79 CALM      30.06S
$$

VAZ088>098-220300-
SOUTHEAST VIRGINIA

CITY           SKY/WX    TMP DP  RH WIND       PRES   REMARKS
NORFOLK        CLOUDY    78  70  76 S3        30.01R
VIRGINIA BEACH CLOUDY    78  72  81 SE3       30.00R
NORFOLK NAVAL  CLOUDY    81  71  71 CALM      30.02R
WEST POINT*    CLOUDY    80  76  88 CALM      30.02R
NEWPORT NEWS   CLOUDY    80  72  76 CALM      30.01R
LANGLEY AFB    CLOUDY    79  75  86 S3        30.00R
FORT EUSTIS    CLOUDY    80  80 100 S1        29.99R
WILLIAMSBURG*  CLOUDY    81  77  89 CALM      30.01S
FRANKLIN*      CLOUDY    79  75  89 CALM      30.01S
WAKEFIELD      CLOUDY    79  76  90 CALM      30.01R
$$

VAZ020-022-025-037-045-220300-
WESTERN AND SOUTHWEST VIRGINIA

CITY           SKY/WX    TMP DP  RH WIND       PRES   REMARKS
STAUNTON*      LGT RAIN  73  67  81 S5        30.09R
HOT SPRINGS VA MOCLDY    63  63 100 W12G17    30.22R
LYNCHBURG        N/A    N/A N/A N/A CALM      30.09R
DANVILLE       CLOUDY    73  70  90 E5        30.07F
MARTINSVILLE   LGT RAIN  75  74  99 CALM      30.10S
ROANOKE        MOCLDY    72  67  84 CALM      30.11R
BLACKSBURG     PTCLDY    68  68 100 CALM      30.17R
DUBLIN*        MOCLDY    70  70 100 SW6       30.17R
MARION*        MOCLDY    66  64  94 W3        30.20S
HILLSVILLE*    CLOUDY    67  65  94 SW5       30.18S
RICHLANDS*     CLOUDY    69  66  89 SW3       30.19R
WISE*          MOCLDY    66  66 100 SW3       30.20R
ABINGDON*      MOCLDY    70  69  98 CALM      30.17R
$$

MDZ021>025-VAZ099-100-220300-
SOUTHERN MARYLAND AND THE DELMARVA PENINSULA

CITY           SKY/WX    TMP DP  RH WIND       PRES   REMARKS
PATUXENT RIVER LGT RAIN  77  71  82 SW5       29.99S
BAY BRIDGE APT   N/A     79  72  78 S5        29.98S
LEONARDTOWN    CLOUDY    77  70  78 CALM      30.01S
DOVER          CLOUDY    74  73  94 SE8       29.99R
GEORGETOWN     LGT RAIN  74  71  91 S13       30.02R
EASTON         NOT AVBL
CAMBRIDGE      CLOUDY    79  73  83 SE6       29.99S
SALISBURY      CLOUDY    77  72  84 CALM      30.02R
OCEAN CITY     CLOUDY    77  73  87 VRB5      30.02R
WALLOPS ISLAND RAIN      74  71  91 SE6       30.02S FOG
ACCOMACK*      TSTM      77  73  88 CALM      30.02R
$$

NCZ012>017-030>032-220300-
EASTERN NORTH CAROLINA

CITY           SKY/WX    TMP DP  RH WIND       PRES   REMARKS
ELIZABETH CITY MOCLDY    78  76  93 CALM      30.01S
AHOSKIE*       CLOUDY    76  74  95 CALM      30.03R
EDENTON*       MOCLDY    78  76  94 CALM      30.02S
CURRITUCK*     MOCLDY    77  69  75 CALM      30.02S HAZE
KILL DEVIL HLS MOCLDY    80  73  79 CALM      30.01R
MANTEO         MOCLDY    81  73  78 SW3       30.03R
CAPE HATTERAS  PTCLDY    79  77  94 SW5       30.03R
GOLDSBORO      MOCLDY    80  80  98 CALM      30.02S
WASHINGTON     MOCLDY    79  76  91 CALM      30.03S
GREENVILLE     MOCLDY    79  77  94 CALM      30.05R
NEW BERN       CLEAR     80  74  81 CALM      30.05R
WILMINGTON     CLEAR     79  74  84 SW5       30.04R
$$

VAZ048-220300-
ELSEWHERE

CITY           SKY/WX    TMP DP  RH WIND       PRES   REMARKS
HARRISBURG PA  MOCLDY    71  68  90 CALM      29.99R
BALTIMORE      CLOUDY    77  69  76 SW5       29.99R
ANNAPOLIS      CLOUDY    79  70  74 CALM      29.97S
ANDREWS AFB    CLOUDY    75  72  90 SW5       30.00R
WILMINGTON DE  CLOUDY    75  70  84 SE7       30.01R
PHILADELPHIA   CLOUDY    74  67  78 S6        30.01S
WILDWOOD NJ*   CLOUDY    75  66  73 SE9       30.02S
ATLANTIC CITY  CLOUDY    73  67  81 S6        30.02S
HENDERSON NC   RAIN      76  72  85 NW7       30.07R
GREENSBORO     MOCLDY    80  69  69 SW6       30.06F
ROCKY MOUNT    MOCLDY    78  74  87 SW3       30.04R
FAYETTEVILLE   PTCLDY    84  69  60 NW3       30.05R
CHARLOTTE      MOCLDY    82  67  60 CALM      30.09S
$$

VAZ100-220300-
MARINE

STATION/POSITION TIME  TEMP    WIND        PRES    WAVE   SWELL
                       AIR SEA DIR/SP/G            HT/PER HT/PER
                 (UTC) (F)     (DEG/KT/KT) (MB)    (FT/S) (FT/S)
44066 TX TWR #4  0200   72 74  100/  6/  8 1017.5R   4/ 7   3/ 7
CAPE MAY NJ      0200   74 81  120/  6/  8 1015.8F
LEWES DE         0200   75 76  170/  7/ 10 1015.9S
15NM E FENWICK I 0200   76 75              1016.3R   2/ 6
OCEAN-CITY-INLET 0200   76 76  160/  7/  9 1016.0R
WACHAPREAGUE VA  0200   78 83  180/  4/  6 1016.1R
THOMAS POINT MD  0200   79 79  220/  6/  7 1015.7R
GOOSES REEF MD   0200   80     230/  6/  8 1015.9S
COVE POINT MD    0200   78     210/  6/  7 1015.3F
SOLOMONS ISLAND  0200      81                N/A
BISHOPS HEAD MD  0200   78 82  150/  8/ 11 1015.3S
PINEY POINT MD   0200          200/  8/  9   N/A
POTOMAC MD       0200   77     210/  8/ 10 1014.9S
CAMBRIDGE MD     0200   79 78  180/  4/  6 1015.3F
LEWISETTA VA     0200   76 81  200/  6/  7 1015.3S
RAPPAHANNOCK LGT 0200          140/  8/  9 1016.4S
STINGRAY PT      0200   81     170/  6/  6 1016.5S
YORK RVR RNG VA  0200   81     170/  8/  9 1015.5S
YORKTOWN VA      0200   81 80  190/  4/  5 1015.7S
JAMESTOWN VA     0200   79     230/  4/  4   N/A
DOMINION TERM VA 0200   81     190/  5/  5 1016.2R
KIPTOPEKE VA     0200      82  180/  7/  8   N/A
CHES BAY BRIDGE  0200   80 77  150/  6/  6 1015.8R
CAPE HENRY VA    0200   79     180/  6/  7 1015.0S
CHESAPEAKE LGHT  0100   79     170/  7/  7 1016.8R
WILLOUBY STN VA  0200   81      60/  2/  2 1015.0R
S CRANEY ISL VA  0200          140/  4/  5 1015.9R
CAPE HENRY BUOY  0100      80                N/A     2/ 7
1ST LANDING BUOY 0200   80     180/  6/  8 1015.8S
CAPE CHARLES BUO 0200      79                N/A     2/ 7   2/ 7
OFFSHORE WE BUOY 0200      79                N/A     2/ 7   2/ 7
64NM E OF VA BCH 0200   79 78  150/  4/  4 1016.3R   2/ 6   2/ 6
DUCK PIER NC     0200   82 79  200/  5/  7 1015.8R
44056 DUCK FRF   0100                        N/A     2/ 6
OREGON INLET NC  0200   82 85  210/  5/  6 1016.5R
HATTERAS NC      0200   81 83  230/  4/  6 1017.2R
DIAMOND SHLS NC  0200   81     210/  8/ 10 1016.9R   2/ 9   2/ 9
CAPE LOOKOUT NC  0200   82     230/  6/  6 1017.2R
$$


USA.gov is the U.S. government's official web portal to all federal, state and local government web resources and services.